Starlink 31972

operational
NORAD ID: 59923 Int'l Des: 2024-106 Owner: SPXS Country: US Constellation: starlink
LEOCIRCULAR

关于 Starlink 31972

正在加载描述...

实时位置

正在加载3D地球...

即将过境

高度历史

Altitude vs Time

uPlot chart will show altitude changes over time

两行轨道根数

1 59923U 24106B 25303.51837254 -.00004128 00000-0 -14058-3 0 9997
2 59923 43.0016 347.7658 0001053 295.7649 64.3094 15.27578065 80667
Epoch: Oct 30, 2025 • Age: 16 hours

当前状态

高度 482.6 km
速度 7.63 km/s
星下点 10.17°N, 40.34°E
发射日期 Jun 1, 2024
运行时间 1.4 years
类型 internet

技术详情

分类 Payload
质量 730.00 kg
干质量 700.00 kg
总质量 730.00 kg
长度 0.30 m
直径 4.10 m
跨度 29.00 m
形状 Box + pan
制造商 SPXS
平台类型 Starlink V2M
阶段状态 In Orbit
所有者/国家 SPXS/US

大型星座

Loading constellations...